Theta_e
350 350 348 346 341 334 334 347 349 347 343 341 341 340 339 336 334 337 337 335 334 335 336 340 341 340 342 342 344 353 353 349 349 349 346 348 348 348 349 348 348 348 348
348 348 346 347 346 338 337 340 341 344 342 340 338 338 337 337 339 340 340 339 340 341 342 342 347 343 344 342 344 349 350 350 349 349 350 350 350 349 346 345 344 345 345
345 350 349 346 350 349 339 337 336 341 345 341 339 338 341 342 342 341 340 342 344 345 349 351 350 350 351 347 349 349 351 351 348 351 351 350 349 351 348 346 347 348 348
343 348 349 347 346 349 346 341 339 337 338 333 333 335 339 339 340 341 346 345 345 347 351 351 352 353 352 351 351 350 346 345 348 350 347 351 351 352 350 350 350 350 349
345 346 348 343 345 350 349 345 346 350 345 338 337 337 340 341 341 350 351 351 351 350 351 352 352 352 352 352 347 342 345 344 341 343 346 351 352 352 350 351 350 350 349
345 347 349 344 350 349 348 350 351 352 351 346 343 351 347 347 350 350 352 352 346 350 351 351 351 352 352 346 343 341 344 345 343 342 344 347 349 351 350 349 350 349 347
346 348 348 350 350 348 350 351 349 351 351 351 352 350 351 352 350 351 352 352 351 352 350 351 351 350 351 347 344 343 340 342 343 343 343 341 343 350 347 344 351 349 347
348 347 349 352 351 349 352 352 353 353 352 352 351 351 351 351 352 351 352 352 351 351 350 348 350 351 351 345 342 342 340 339 338 339 339 335 340 342 348 348 350 347 342
346 347 348 352 353 352 351 352 353 353 352 351 351 351 346 352 351 352 352 352 351 351 350 350 350 351 350 348 345 341 342 343 340 332 333 341 334 334 349 348 347 347 344
347 348 350 351 352 351 352 352 352 351 351 350 347 346 349 352 352 352 349 350 351 350 350 350 349 350 347 345 344 341 345 344 344 343 338 339 338 334 350 349 348 344 344
350 349 350 350 350 348 349 348 346 346 346 344 348 351 351 350 352 347 344 346 350 349 350 350 350 347 345 344 344 343 343 345 343 343 343 342 342 340 350 350 346 341 337
350 350 346 344 343 342 342 345 344 342 341 335 341 345 345 348 350 347 346 347 346 345 345 346 352 347 344 341 341 341 340 341 343 346 345 343 343 345 352 351 344 338 343
347 348 346 343 341 340 341 344 342 342 339 335 336 343 347 349 349 348 348 346 344 344 344 344 347 348 342 340 344 341 338 339 341 344 345 345 345 346 352 351 349 348 344
347 347 345 343 343 341 340 343 341 340 339 338 339 346 347 348 347 346 345 346 343 343 344 345 345 342 342 340 335 339 337 338 343 344 347 346 342 344 351 351 351 348 348
347 347 346 346 344 346 343 343 341 341 340 340 342 346 349 347 342 344 342 342 339 336 342 347 348 340 341 332 336 340 335 340 342 345 347 345 340 345 349 351 350 350 347
348 348 346 346 345 347 345 342 342 341 341 342 345 347 348 344 344 347 344 340 339 339 345 347 347 346 340 344 344 346 345 346 346 344 346 341 335 344 346 350 349 347 347
350 349 348 348 346 347 343 346 343 344 345 346 345 344 345 345 347 343 339 341 345 346 346 347 349 348 347 347 347 346 346 348 348 345 341 335 334 341 346 348 348 338 341
351 350 348 350 349 348 347 348 348 349 347 347 346 345 343 346 346 344 341 344 347 348 348 348 348 348 350 349 348 347 347 346 347 345 341 338 338 335 336 343 338 335 337
351 351 351 352 350 349 347 349 349 349 348 347 347 347 347 347 349 346 344 344 346 347 348 349 349 348 335 347 347 346 341 342 347 346 348 346 339 337 336 334 335 337 343
351 351 352 353 351 349 348 348 349 349 349 348 348 347 348 348 349 348 347 346 346 347 348 348 350 347 347 345 337 345 344 338 344 344 345 346 347 343 335 335 336 339 341
350 350 351 352 350 349 348 349 351 349 350 349 349 347 349 349 348 348 347 345 342 347 347 349 350 347 347 344 342 342 335 337 340 343 342 341 347 347 346 343 338 338 338
350 350 350 351 351 350 350 349 349 349 349 348 349 348 349 349 348 348 347 339 344 347 349 349 350 349 347 344 338 334 334 338 339 342 340 342 337 342 347 347 346 345 341
350 350 350 351 351 351 350 348 349 349 349 349 348 347 347 347 347 348 346 338 341 346 348 349 350 349 349 342 336 333 335 337 334 341 340 341 344 346 340 347 348 347 347
350 350 350 350 349 349 349 349 349 348 349 349 348 347 347 348 348 350 348 347 344 348 347 348 350 350 350 349 341 341 334 334 339 336 336 342 345 344 344 346 348 349 350
349 351 350 349 349 349 349 350 348 348 348 348 349 348 347 349 349 349 350 347 339 342 337 347 345 350 351 348 341 336 335 337 341 339 339 336 340 341 344 347 349 350 347
347 350 352 350 349 349 349 350 349 347 349 350 349 349 347 347 347 348 348 348 339 348 348 344 346 352 351 350 349 346 341 338 341 342 340 342 341 344 346 347 348 346 347
Wind_Speed
24 24 22 22 22 22 23 23 23 25 26 27 26 26 26 24 23 20 18 17 15 13 12 11 11 10 10 10 11 13 13 14 16 18 20 20 19 18 18 18 17 18 19
31 26 23 23 22 22 21 23 25 24 24 24 24 23 22 21 19 17 15 13 11 10 9 9 9 9 9 9 8 10 12 12 14 17 19 18 17 17 16 17 17 16 17
32 29 25 24 22 22 22 22 23 22 21 22 21 20 18 17 15 13 12 10 9 8 7 8 7 8 9 8 8 8 11 12 14 16 16 17 16 14 14 16 16 15 14
34 30 26 26 24 24 23 23 22 21 19 20 18 17 15 14 11 10 10 9 9 8 7 7 7 8 8 9 9 9 10 9 11 12 16 15 12 14 14 15 15 14 13
32 30 27 26 24 23 22 22 23 20 17 16 15 13 12 11 9 7 8 9 9 9 7 6 7 7 7 8 10 10 9 15 17 12 15 14 14 15 13 13 13 12 12
33 29 27 25 23 22 22 21 20 19 16 14 13 12 11 9 8 8 8 8 8 8 7 6 7 7 6 8 9 10 11 14 17 13 17 14 15 13 12 13 11 11 12
31 27 26 25 24 23 21 20 20 18 16 15 14 12 9 8 8 8 9 8 8 8 7 5 6 7 6 7 8 9 12 14 17 19 22 10 13 13 12 12 12 12 11
32 27 24 24 25 23 21 19 18 17 16 15 13 11 10 8 7 9 9 8 8 7 7 5 5 6 6 8 8 8 10 10 11 20 18 13 13 15 13 13 12 12 10
32 29 26 23 21 21 20 19 18 16 14 13 12 11 9 9 9 10 9 7 6 6 6 6 6 7 7 7 7 7 9 11 2 14 18 17 14 15 15 13 13 13 11
32 29 28 25 23 22 20 18 17 14 12 12 11 10 9 9 9 9 8 7 6 5 6 6 6 6 6 5 5 7 10 7 4 4 13 14 18 18 17 16 16 15 14
27 29 28 27 25 23 20 17 15 14 14 11 9 8 8 9 8 7 6 5 5 6 6 5 6 6 8 8 7 8 10 10 6 6 10 13 20 19 19 19 18 17 15
26 28 29 27 25 21 19 18 17 16 15 13 9 9 7 8 5 6 5 5 5 5 5 5 7 8 8 8 6 7 10 11 13 10 14 15 20 20 19 20 20 18 16
32 28 29 27 25 20 19 19 17 16 16 14 12 8 7 6 5 5 8 6 6 6 6 6 7 9 10 10 9 9 12 13 14 12 16 20 22 22 22 22 20 17 16
30 30 29 26 24 21 18 18 17 15 16 14 13 7 6 6 8 5 3 8 8 8 8 7 8 10 11 11 6 10 11 12 12 11 10 20 23 24 21 21 18 17 16
28 30 31 28 24 21 19 18 18 13 15 14 13 9 5 6 4 5 3 9 12 9 11 10 8 11 11 9 7 7 8 11 9 11 16 21 22 21 21 20 18 17 16
30 32 30 30 23 20 21 17 18 14 13 15 14 11 8 6 4 5 6 5 10 11 12 9 11 13 11 8 5 7 6 4 8 9 13 20 20 21 20 20 18 16 15
33 32 33 31 26 22 23 19 17 16 15 14 14 14 13 9 4 10 9 6 7 9 11 11 12 12 12 9 8 13 6 7 8 10 15 19 17 19 19 19 16 14 14
32 33 33 30 29 25 22 20 17 14 16 14 15 16 14 12 9 11 9 9 6 6 11 12 7 3 2 8 9 1 5 6 6 12 14 16 18 19 18 17 15 14 14
37 34 34 33 30 28 24 21 17 13 16 14 13 17 15 15 13 13 14 13 9 9 12 11 9 2 2 2 5 1 6 10 8 6 6 15 17 19 19 17 17 16 15
37 37 36 33 30 29 26 24 18 14 17 15 13 19 17 19 17 15 14 13 14 10 9 10 9 6 12 13 13 14 12 2 2 6 6 3 12 16 17 18 18 18 17
33 36 37 36 33 32 29 27 23 20 17 18 16 17 18 20 18 17 15 13 13 10 7 6 4 9 12 16 18 11 5 3 5 6 9 7 11 15 16 16 17 19 19
35 36 35 38 36 35 33 32 25 21 21 19 19 22 15 18 19 17 14 16 11 10 5 6 7 4 5 9 3 5 3 3 8 8 9 10 13 15 14 14 16 19 21
33 36 38 40 39 38 34 27 18 20 20 20 19 22 19 21 20 18 14 16 13 11 8 8 8 6 4 9 8 4 2 3 1 7 9 13 11 9 10 15 15 14 18
34 37 39 40 40 38 34 29 24 26 20 23 22 22 19 22 20 20 17 16 16 12 14 10 7 7 5 7 6 1 4 5 3 0 7 14 12 13 14 14 17 19 20
31 33 35 39 39 38 35 31 27 26 23 23 24 23 23 21 23 21 18 15 19 18 16 9 10 9 7 8 8 4 4 4 3 3 1 6 10 15 17 18 18 22 24
29 30 35 40 39 38 36 32 29 30 24 23 25 25 28 27 26 24 21 18 20 17 14 12 14 12 10 9 8 9 8 4 5 7 2 7 10 9 14 19 23 26 18
Wind_Direction
159 154 150 149 146 141 133 125 121 123 128 129 127 128 128 128 128 131 133 134 137 137 134 125 117 112 111 109 112 117 120 120 123 122 122 124 125 123 123 124 122 119 116
155 154 154 150 147 146 142 135 132 129 129 129 128 127 125 123 125 129 127 129 132 132 136 131 122 124 117 123 126 125 127 126 122 125 123 124 126 123 123 123 124 120 119
153 154 155 153 150 149 147 145 139 132 129 129 128 123 121 120 118 118 120 124 132 135 133 134 134 126 128 131 145 144 140 135 128 131 136 137 136 134 129 128 123 122 122
154 155 156 157 156 154 151 149 144 139 137 134 128 128 125 122 120 123 124 129 124 124 134 146 145 131 142 146 152 155 151 126 134 143 139 118 128 141 135 131 128 134 132
153 155 156 158 159 156 154 153 146 145 145 141 136 133 132 131 131 125 131 127 127 127 132 138 144 149 146 148 164 162 144 151 161 152 150 138 134 141 143 145 140 140 141
156 158 159 160 158 156 156 155 153 150 151 149 144 144 149 146 139 141 139 132 138 130 131 143 145 147 152 152 167 145 156 159 168 176 165 157 156 157 153 148 145 151 148
158 162 164 162 157 160 157 158 160 158 155 153 151 155 161 160 153 148 141 147 139 135 147 158 149 149 164 160 151 152 188 183 177 172 163 157 169 168 168 156 162 160 167
156 159 161 164 165 164 163 162 160 158 158 152 157 167 170 165 165 151 147 158 156 152 150 160 170 159 162 153 148 158 187 173 181 189 193 199 177 170 179 173 177 178 182
157 160 160 161 162 163 163 161 157 160 159 157 166 176 172 171 166 156 161 170 173 165 172 178 183 170 178 187 173 179 198 190 99 166 182 179 182 181 191 183 186 190 194
159 164 163 161 163 163 158 158 158 156 156 164 175 180 173 168 167 161 175 173 180 193 193 192 198 193 185 199 198 180 209 236 235 186 183 207 205 192 195 198 195 198 199
161 167 168 168 170 164 158 161 163 160 156 161 166 163 178 164 170 170 187 185 190 213 207 186 193 201 199 213 213 187 195 217 244 233 217 209 197 199 202 201 201 203 198
170 177 175 173 172 170 171 176 178 174 176 175 160 160 166 160 174 187 191 214 203 220 227 198 206 212 216 203 197 199 199 204 208 229 233 229 211 210 209 209 206 202 201
177 179 182 179 181 184 183 185 184 187 186 182 173 161 166 182 206 221 216 212 210 215 227 219 206 221 230 235 224 200 197 207 225 241 248 230 222 216 213 213 209 204 204
177 183 181 182 186 189 191 190 188 189 193 189 186 176 191 234 203 195 234 221 227 233 233 227 235 232 233 246 213 219 207 208 208 244 237 219 214 215 214 215 214 211 206
180 186 186 185 185 190 195 196 196 192 194 198 189 180 209 193 199 157 241 266 230 256 235 221 229 226 231 231 262 219 205 211 230 249 239 212 217 211 213 216 213 216 219
184 190 190 192 194 194 195 196 198 196 188 193 186 188 195 204 233 250 285 287 234 229 213 213 221 232 221 212 206 248 246 269 255 235 226 215 218 216 220 215 217 219 224
189 195 194 194 195 197 196 192 194 196 195 194 196 200 206 203 187 108 198 184 195 231 228 226 230 234 233 250 247 267 293 288 251 225 221 223 217 219 220 223 224 224 223
187 192 192 193 195 200 201 199 192 202 210 204 205 202 189 196 207 179 155 201 191 226 226 224 219 189 229 338 317 25 108 54 194 218 227 226 228 226 221 226 228 229 229
193 190 195 196 198 201 201 199 197 202 209 210 207 190 185 185 192 205 210 201 214 227 235 226 238 198 305 125 91 86 81 71 105 133 227 231 233 232 233 230 229 229 231
191 194 192 198 202 203 204 199 197 206 214 211 206 194 191 190 191 199 212 213 210 223 233 239 244 171 179 182 168 222 243 103 89 175 147 226 237 238 238 239 239 240 236
187 191 194 195 201 203 200 197 192 200 211 205 204 203 198 197 203 210 212 222 208 217 201 235 201 159 155 159 157 209 208 244 236 196 206 296 231 237 236 237 244 247 246
184 190 191 198 200 202 199 195 193 196 202 209 208 205 208 204 206 209 210 204 198 193 183 220 247 164 156 192 124 93 8 295 263 230 247 274 229 220 229 243 243 250 250
182 188 191 194 201 200 201 196 195 196 207 213 212 207 209 202 207 216 206 194 212 199 207 217 236 201 158 200 188 159 116 243 340 254 261 249 240 221 233 245 241 241 244
187 190 194 196 201 201 201 196 197 198 203 217 215 203 199 193 202 212 215 217 201 200 219 206 205 201 195 226 191 173 169 154 184 302 270 250 238 249 249 243 246 238 245
183 185 192 197 199 201 202 201 200 204 213 218 220 213 205 197 202 210 212 210 212 223 205 212 223 212 197 211 185 175 180 153 166 130 232 266 248 251 246 238 241 242 245
184 182 187 195 199 202 203 205 207 209 211 214 218 212 211 214 212 213 214 210 208 218 213 219 224 213 206 207 219 200 204 205 210 209 210 232 248 292 240 238 239 233 248